Location: Cuzcurrita-R�o Tir�n
(42.5415°N, 2.9642°W)
Time: 17:30:19
(UTC+00:00)

Cosmos 1953 - Pass Details

Date: 17 January 2021
Orbit: 539 x 556 km, 82.5° (Epoch: 02 March)

Event Time Altitude Azimuth Distance (km) Brightness Sun altitude
Rises 17:46:41 0° 343° (NNW) 2,706 5.8 -7.6°
Reaches altitude 10° 17:48:57 10° 336° (NNW) 1,810 5.0 -7.9°
Maximum altitude 17:52:37 37° 268° (W) 850 4.0 -8.6°
Drops below altitude 10° 17:56:17 10° 200° (SSW) 1,800 5.5 -9.2°
Sets 17:58:32 0° 192° (SSW) 2,689 6.3 -9.6°
